Terug naar catalogus

STARLINK-31372

ActiefCommunicatieVLEO
NORAD 58939·PAYLOAD·🇺🇸 United States

Gelanceerd Feb 10, 2024 vanaf Vandenberg Space Force Base

Loading…

Volgende Passages (komende 24 uur)

TLE

VersSource: CelesTrak SupGP

Epoch: Sep 15, 2026, 03:04 UTC

1 58939C 24027J   26258.12826389  .00013761  00000+0  40663-3 0  2588
2 58939  53.1581 149.0200 0001300  89.3321 207.7792 15.34378490    14

Volg STARLINK-31372 in realtime met AllMySat

Download on the App Store